[[{"header":{"parameterUnit":"m.s-1","parameterCategory":1,"la1":30.2992,"la2":30.254,"lo1":-89.0895,"lo2":-89.0443,"dy":0.0025,"dx":0.0025,"nx":19,"ny":19,"refTime":"2026-03-31T21:00:00:Z","depth":0,"parameterNumber":2,"parameterNumberName":"U-component_of_WINDS"},"data":[0,0,0,-4.1849,-4.1851,-4.1906,-4.1906,-4.1992,-4.1993,0,0,0,0,0,0,0,0,0,0,0,-4.1842,-4.1842,-4.1849,-4.1851,-4.1906,-4.1906,-4.1992,-4.1993,0,0,0,0,0,0,0,0,0,0,0,-4.1841,-4.1842,-4.1843,-4.1851,-4.1906,-4.1906,-4.1991,-4.1944,0,0,0,0,0,0,0,0,0,0,-4.1888,-4.1889,-4.1842,-4.1843,-4.1851,-4.1906,-4.1906,-4.1942,-4.1947,-4.1973,0,-4.1998,0,-4.1997,-4.1999,-4.2,0,0,0,-4.1844,-4.1885,-4.1892,-4.1843,-4.1852,-4.1906,-4.1879,-4.1945,-4.1951,-4.1981,-4.1999,-4.2002,-4.1998,-4.2,-4.2,-4.217,-4.2171,0,0,-4.1841,-4.1856,-4.1888,-4.1897,-4.1888,-4.1877,-4.1881,-4.1948,-4.197,-4.1999,-4.2004,-4.2,-4.2001,-4.2001,-4.2169,-4.2171,0,0,0,-4.1837,-4.1854,-4.1859,-4.1893,-4.1902,-4.1879,-4.1883,-4.1966,-4.1967,-4.2004,-4.2001,-4.2001,-4.2002,-4.2168,-4.217,-4.2237,0,0,0,-4.1835,-4.1852,-4.1858,-4.1868,-4.1901,-4.1935,-4.19,-4.1962,-4.1969,-4.2,-4.2001,-4.2003,-4.2167,-4.2169,-4.2232,-4.2265,0,0,0,-4.1835,-4.1851,-4.1862,-4.1869,-4.1893,-4.1933,-4.1938,-4.1963,-4.1968,-4.2,-4.2004,-4.2166,-4.2169,-4.2228,-4.2259,-4.2313,0,0,0,-4.1839,-4.1922,-4.1864,-4.1955,-4.1893,-4.1975,-4.1937,-4.1998,-4.2034,-4.2002,-4.2167,-4.217,-4.2227,-4.2255,-4.2309,-4.236,-4.2383,0,0,-4.1951,-4.1936,-4.1988,-4.1938,-4.2034,-4.1966,-4.2073,-4.2091,-4.2082,-4.2142,-4.2145,-4.2234,-4.2258,-4.2312,-4.2512,-4.2531,0,0,0,-4.2028,-4.2066,-4.2088,-4.2123,-4.214,-4.2157,-4.2158,-4.2166,-4.2216,-4.2115,-4.2269,-4.2283,-4.2314,-4.2338,-4.2353,-4.2378,-4.2182,-4.2182,-4.2181,-4.2206,-4.2189,-4.2274,-4.2265,-4.2299,-4.2301,-4.2327,-4.2337,-4.231,-4.2347,-4.2364,-4.2487,-4.2515,-4.2527,-4.2554,-4.2392,-4.2392,-4.2392,-4.2392,-4.2366,-4.2415,-4.238,-4.2448,-4.2431,-4.2489,-4.2495,-4.2475,-4.2526,-4.2473,-4.25,-4.244,-4.2548,-4.257,-4.2397,-4.2396,-4.2396,-4.2395,-4.2395,-4.2478,-4.2498,-4.2507,-4.2556,-4.2597,-4.2586,-4.2637,-4.262,-4.2604,-4.2631,-4.2646,-4.2645,-4.2639,-4.264,-4.264,-4.2641,-4.2641,-4.2642,-4.2642,-4.2589,-4.2596,-4.2641,-4.2668,-4.2689,-4.2714,-4.2719,-4.2739,-4.2757,-4.274,-4.274,-4.2709,-4.2563,-4.2525,-4.2648,-4.2647,-4.2646,-4.2646,-4.2645,-4.2752,-4.2713,-4.2783,-4.2804,-4.2834,-4.2876,-4.2855,-4.2898,-4.2912,-4.2938,-4.2903,-4.2798,-4.2781,-4.2768,-4.2736,-4.2907,-4.2907,-4.2907,-4.2907,-4.2844,-4.2835,-4.2903,-4.2937,-4.297,-4.2958,-4.3038,-4.3044,-4.3044,-4.3052,-4.3026,-4.2983,-4.2971,-4.2961,-4.2944,-4.2914,-4.3126,-4.3126,-4.3126,-4.2943,-4.2936,-4.3007,-4.3006,-4.3029,-4.305,-4.3125,-4.3166,-4.3158,-4.3135,-4.3057,-4.3048,-4.298,-4.2959,-4.2929,-4.2904,-4.2848,0,0]},{"header":{"parameterUnit":"m.s-1","parameterCategory":1,"la1":30.2992,"la2":30.254,"lo1":-89.0895,"lo2":-89.0443,"dy":0.0025,"dx":0.0025,"nx":19,"ny":19,"refTime":"2026-03-31T21:00:00:Z","depth":0,"parameterNumber":3,"parameterNumberName":"V-component_of_WINDS"},"data":[0,0,0,2.4878,2.488,2.4962,2.4962,2.5039,2.5039,0,0,0,0,0,0,0,0,0,0,0,2.4839,2.4839,2.4878,2.488,2.4962,2.4962,2.5039,2.5039,0,0,0,0,0,0,0,0,0,0,0,2.4839,2.4839,2.4839,2.488,2.4962,2.4962,2.5039,2.4987,0,0,0,0,0,0,0,0,0,0,2.4912,2.486,2.4839,2.4839,2.4881,2.4961,2.4962,2.4985,2.499,2.499,0,2.4988,0,2.5015,2.5043,2.5043,0,0,0,2.4891,2.4856,2.4892,2.4839,2.4881,2.4961,2.4928,2.4988,2.4994,2.4997,2.4989,2.4993,2.5016,2.5043,2.5043,2.5014,2.5014,0,0,2.4887,2.4845,2.4888,2.4895,2.4882,2.4925,2.493,2.4992,2.498,2.499,2.4995,2.5017,2.5044,2.5044,2.5015,2.5014,0,0,0,2.4866,2.4841,2.4876,2.4891,2.4908,2.4927,2.4933,2.4977,2.4992,2.4996,2.5018,2.5044,2.5045,2.5016,2.5015,2.4943,0,0,0,2.4864,2.4829,2.4874,2.4849,2.4906,2.4944,2.4916,2.4988,2.4996,2.5018,2.5044,2.5045,2.5017,2.5015,2.4947,2.4917,0,0,0,2.4839,2.4826,2.4833,2.4846,2.488,2.4944,2.4963,2.4991,2.5009,2.5043,2.5045,2.5017,2.5015,2.495,2.4922,2.4898,0,0,0,2.4799,2.4766,2.4831,2.4803,2.4879,2.4899,2.4963,2.498,2.5,2.5044,2.5017,2.5015,2.4951,2.4925,2.4901,2.4872,2.4855,0,0,2.4734,2.4757,2.4744,2.4804,2.4803,2.489,2.4877,2.4935,2.4975,2.4998,2.4998,2.4946,2.4922,2.4899,2.4774,2.4761,0,0,0,2.4709,2.47,2.4708,2.4727,2.4771,2.4807,2.4871,2.4893,2.4915,2.4979,2.4931,2.4919,2.4907,2.4894,2.4883,2.4876,2.5007,2.5007,2.5007,2.4557,2.4613,2.4596,2.4661,2.4678,2.4746,2.4765,2.4805,2.4854,2.4842,2.485,2.4768,2.4752,2.4743,2.4735,2.4837,2.4837,2.4837,2.4837,2.4469,2.4465,2.4533,2.4541,2.46,2.4606,2.467,2.4705,2.4719,2.4766,2.4758,2.4806,2.4727,2.4723,2.4832,2.4833,2.4833,2.4834,2.4834,2.4378,2.4386,2.4413,2.4448,2.4467,2.4534,2.4546,2.4597,2.4646,2.4638,2.4653,2.4654,2.4663,2.4641,2.4641,2.4641,2.4641,2.464,2.464,2.4272,2.4306,2.4311,2.4356,2.4376,2.4408,2.4476,2.4496,2.4532,2.4569,2.4569,2.462,2.4709,2.4731,2.4636,2.4637,2.4637,2.4638,2.4638,2.4165,2.4198,2.4205,2.4225,2.4283,2.43,2.4366,2.4403,2.4427,2.4431,2.4484,2.4541,2.4567,2.4577,2.4596,2.4472,2.4472,2.4472,2.4472,2.4089,2.4108,2.4128,2.4156,2.419,2.4251,2.4257,2.4309,2.4367,2.4386,2.4411,2.4439,2.4447,2.4469,2.4481,2.4499,2.4354,2.4354,2.4353,2.4027,2.4052,2.4048,2.4107,2.4157,2.4198,2.4205,2.4234,2.4307,2.435,2.4401,2.4406,2.4454,2.4466,2.451,2.4527,2.4562,0,0]}]]